Year,Month,Day,Hour,Minute,Value (Times are PST for temperature in C)
2002,08,27,00,00,15.50
2002,08,27,00,01,15.50
2002,08,27,00,02,15.60
2002,08,27,00,03,15.60
2002,08,27,00,04,15.60
2002,08,27,00,05,15.60
2002,08,27,00,06,15.60
2002,08,27,00,07,15.70
2002,08,27,00,08,15.70
2002,08,27,00,09,15.60
2002,08,27,00,10,15.60
2002,08,27,00,11,15.60
2002,08,27,00,12,15.50
2002,08,27,00,13,15.50
2002,08,27,00,14,15.40
2002,08,27,00,15,15.40
2002,08,27,00,16,15.30
2002,08,27,00,17,15.30
2002,08,27,00,18,15.30
2002,08,27,00,19,15.30
2002,08,27,00,20,15.30
2002,08,27,00,21,15.30
2002,08,27,00,22,15.30
2002,08,27,00,23,15.20
2002,08,27,00,24,15.30
2002,08,27,00,25,15.30
2002,08,27,00,26,15.30
2002,08,27,00,27,15.30
2002,08,27,00,28,15.30
2002,08,27,00,29,15.30
2002,08,27,00,30,15.30
2002,08,27,00,31,15.30
2002,08,27,00,32,15.30
2002,08,27,00,33,15.30
2002,08,27,00,34,15.30
2002,08,27,00,35,15.30
2002,08,27,00,36,15.30
2002,08,27,00,37,15.30
2002,08,27,00,38,15.30
2002,08,27,00,39,15.30
2002,08,27,00,40,15.30
2002,08,27,00,41,15.30
2002,08,27,00,42,15.30
2002,08,27,00,43,15.30
2002,08,27,00,44,15.30
2002,08,27,00,45,15.20
2002,08,27,00,46,15.20
2002,08,27,00,47,15.20
2002,08,27,00,48,15.10
2002,08,27,00,49,15.10
2002,08,27,00,50,15.10
2002,08,27,00,51,15.10
2002,08,27,00,52,15.10
2002,08,27,00,53,15.10
2002,08,27,00,54,15.20
2002,08,27,00,55,15.20
2002,08,27,00,56,15.20
2002,08,27,00,57,15.20
2002,08,27,00,58,15.20
2002,08,27,00,59,15.20
2002,08,27,01,00,15.20
2002,08,27,01,01,15.20
2002,08,27,01,02,15.20
2002,08,27,01,03,15.10
2002,08,27,01,04,15.10
2002,08,27,01,05,15.10
2002,08,27,01,06,15.10
2002,08,27,01,07,15.10
2002,08,27,01,08,15.10
2002,08,27,01,09,15.10
2002,08,27,01,10,15.10
2002,08,27,01,11,15.10
2002,08,27,01,12,15.10
2002,08,27,01,13,15.10
2002,08,27,01,14,15.10
2002,08,27,01,15,15.10
2002,08,27,01,16,15.10
2002,08,27,01,17,15.10
2002,08,27,01,18,15.10
2002,08,27,01,19,15.10
2002,08,27,01,20,15.20
2002,08,27,01,21,15.20
2002,08,27,01,22,15.20
2002,08,27,01,23,15.20
2002,08,27,01,24,15.20
2002,08,27,01,25,15.10
2002,08,27,01,26,15.10
2002,08,27,01,27,15.10
2002,08,27,01,28,15.00
2002,08,27,01,29,15.00
2002,08,27,01,30,15.00
2002,08,27,01,31,15.00
2002,08,27,01,32,14.90
2002,08,27,01,33,14.90
2002,08,27,01,34,14.90
2002,08,27,01,35,14.90
2002,08,27,01,36,14.90
2002,08,27,01,37,14.90
2002,08,27,01,38,14.90
2002,08,27,01,39,15.00
2002,08,27,01,40,15.00
2002,08,27,01,41,15.00
2002,08,27,01,42,15.00
2002,08,27,01,43,15.00
2002,08,27,01,44,15.00
2002,08,27,01,45,15.00
2002,08,27,01,46,15.00
2002,08,27,01,47,15.00
2002,08,27,01,48,15.00
2002,08,27,01,49,15.00
2002,08,27,01,50,15.00
2002,08,27,01,51,15.00
2002,08,27,01,52,15.00
2002,08,27,01,53,14.90
2002,08,27,01,54,14.90
2002,08,27,01,55,14.90
2002,08,27,01,56,14.90
2002,08,27,01,57,14.90
2002,08,27,01,58,14.80
2002,08,27,01,59,14.80
2002,08,27,02,00,14.80
2002,08,27,02,01,14.80
2002,08,27,02,02,14.80
2002,08,27,02,03,14.70
2002,08,27,02,04,14.70
2002,08,27,02,05,14.70
2002,08,27,02,06,14.70
2002,08,27,02,07,14.70
2002,08,27,02,08,14.70
2002,08,27,02,09,14.70
2002,08,27,02,10,14.70
2002,08,27,02,11,14.70
2002,08,27,02,12,14.70
2002,08,27,02,13,14.70
2002,08,27,02,14,14.70
2002,08,27,02,15,14.70
2002,08,27,02,16,14.70
2002,08,27,02,17,14.60
2002,08,27,02,18,14.50
2002,08,27,02,19,14.40
2002,08,27,02,20,14.30
2002,08,27,02,21,14.20
2002,08,27,02,22,14.20
2002,08,27,02,23,14.20
2002,08,27,02,24,14.10
2002,08,27,02,25,14.10
2002,08,27,02,26,14.10
2002,08,27,02,27,14.00
2002,08,27,02,28,14.00
2002,08,27,02,29,14.00
2002,08,27,02,30,13.90
2002,08,27,02,31,13.90
2002,08,27,02,32,13.90
2002,08,27,02,33,13.80
2002,08,27,02,34,13.80
2002,08,27,02,35,13.80
2002,08,27,02,36,13.80
2002,08,27,02,37,13.80
2002,08,27,02,38,13.80
2002,08,27,02,39,13.80
2002,08,27,02,40,13.80
2002,08,27,02,41,13.90
2002,08,27,02,42,13.80
2002,08,27,02,43,13.80
2002,08,27,02,44,13.80
2002,08,27,02,45,13.80
2002,08,27,02,46,13.80
2002,08,27,02,47,13.80
2002,08,27,02,48,13.70
2002,08,27,02,49,13.70
2002,08,27,02,50,13.70
2002,08,27,02,51,13.80
2002,08,27,02,52,13.80
2002,08,27,02,53,13.80
2002,08,27,02,54,13.80
2002,08,27,02,55,13.70
2002,08,27,02,56,13.70
2002,08,27,02,57,13.70
2002,08,27,02,58,13.70
2002,08,27,02,59,13.70
2002,08,27,03,00,13.70
2002,08,27,03,01,13.70
2002,08,27,03,02,13.70
2002,08,27,03,03,13.70
2002,08,27,03,04,13.70
2002,08,27,03,05,13.70
2002,08,27,03,06,13.70
2002,08,27,03,07,13.70
2002,08,27,03,08,13.70
2002,08,27,03,09,13.70
2002,08,27,03,10,13.70
2002,08,27,03,11,13.70
2002,08,27,03,12,13.60
2002,08,27,03,13,13.60
2002,08,27,03,14,13.50
2002,08,27,03,15,13.50
2002,08,27,03,16,13.50
2002,08,27,03,17,13.50
2002,08,27,03,18,13.50
2002,08,27,03,19,13.50
2002,08,27,03,20,13.50
2002,08,27,03,21,13.50
2002,08,27,03,22,13.50
2002,08,27,03,23,13.50
2002,08,27,03,24,13.60
2002,08,27,03,25,13.60
2002,08,27,03,26,13.60
2002,08,27,03,27,13.70
2002,08,27,03,28,13.70
2002,08,27,03,29,13.70
2002,08,27,03,30,13.70
2002,08,27,03,31,13.60
2002,08,27,03,32,13.60
2002,08,27,03,33,13.60
2002,08,27,03,34,13.60
2002,08,27,03,35,13.60
2002,08,27,03,36,13.60
2002,08,27,03,37,13.60
2002,08,27,03,38,13.60
2002,08,27,03,39,13.60
2002,08,27,03,40,13.60
2002,08,27,03,41,13.50
2002,08,27,03,42,13.50
2002,08,27,03,43,13.50
2002,08,27,03,44,13.40
2002,08,27,03,45,13.40
2002,08,27,03,46,13.40
2002,08,27,03,47,13.40
2002,08,27,03,48,13.40
2002,08,27,03,49,13.40
2002,08,27,03,50,13.40
2002,08,27,03,51,13.40
2002,08,27,03,52,13.40
2002,08,27,03,53,13.40
2002,08,27,03,54,13.40
2002,08,27,03,55,13.40
2002,08,27,03,56,13.40
2002,08,27,03,57,13.40
2002,08,27,03,58,13.40
2002,08,27,03,59,13.40
2002,08,27,04,00,13.40
2002,08,27,04,01,13.40
2002,08,27,04,02,13.30
2002,08,27,04,03,13.30
2002,08,27,04,04,13.20
2002,08,27,04,05,13.20
2002,08,27,04,06,13.10
2002,08,27,04,07,13.10
2002,08,27,04,08,13.00
2002,08,27,04,09,12.90
2002,08,27,04,10,12.80
2002,08,27,04,11,12.80
2002,08,27,04,12,12.80
2002,08,27,04,13,12.80
2002,08,27,04,14,12.80
2002,08,27,04,15,12.80
2002,08,27,04,16,12.80
2002,08,27,04,17,12.80
2002,08,27,04,18,12.80
2002,08,27,04,19,12.80
2002,08,27,04,20,12.80
2002,08,27,04,21,12.80
2002,08,27,04,22,12.80
2002,08,27,04,23,12.80
2002,08,27,04,24,12.80
2002,08,27,04,25,12.80
2002,08,27,04,26,12.80
2002,08,27,04,27,12.80
2002,08,27,04,28,12.70
2002,08,27,04,29,12.70
2002,08,27,04,30,12.70
2002,08,27,04,31,12.70
2002,08,27,04,32,12.70
2002,08,27,04,33,12.70
2002,08,27,04,34,12.70
2002,08,27,04,35,12.70
2002,08,27,04,36,12.80
2002,08,27,04,37,12.80
2002,08,27,04,38,12.70
2002,08,27,04,39,12.70
2002,08,27,04,40,12.70
2002,08,27,04,41,12.80
2002,08,27,04,42,12.80
2002,08,27,04,43,12.80
2002,08,27,04,44,12.80
2002,08,27,04,45,12.80
2002,08,27,04,46,12.80
2002,08,27,04,47,12.80
2002,08,27,04,48,12.80
2002,08,27,04,49,12.80
2002,08,27,04,50,12.80
2002,08,27,04,51,12.80
2002,08,27,04,52,12.80
2002,08,27,04,53,12.70
2002,08,27,04,54,12.70
2002,08,27,04,55,12.70
2002,08,27,04,56,12.70
2002,08,27,04,57,12.70
2002,08,27,04,58,12.80
2002,08,27,04,59,12.80
2002,08,27,05,00,12.80
2002,08,27,05,01,12.80
2002,08,27,05,02,12.80
2002,08,27,05,03,12.80
2002,08,27,05,04,12.80
2002,08,27,05,05,12.70
2002,08,27,05,06,12.70
2002,08,27,05,07,12.70
2002,08,27,05,08,12.80
2002,08,27,05,09,12.80
2002,08,27,05,10,12.80
2002,08,27,05,11,12.80
2002,08,27,05,12,12.80
2002,08,27,05,13,12.80
2002,08,27,05,14,12.80
2002,08,27,05,15,12.80
2002,08,27,05,16,12.80
2002,08,27,05,17,12.80
2002,08,27,05,18,12.80
2002,08,27,05,19,12.80
2002,08,27,05,20,12.80
2002,08,27,05,21,12.80
2002,08,27,05,22,12.80
2002,08,27,05,23,12.80
2002,08,27,05,24,12.80
2002,08,27,05,25,12.80
2002,08,27,05,26,12.80
2002,08,27,05,27,12.80
2002,08,27,05,28,12.80
2002,08,27,05,29,12.80
2002,08,27,05,30,12.70
2002,08,27,05,31,12.70
2002,08,27,05,32,12.70
2002,08,27,05,33,12.70
2002,08,27,05,34,12.70
2002,08,27,05,35,12.70
2002,08,27,05,36,12.70
2002,08,27,05,37,12.60
2002,08,27,05,38,12.60
2002,08,27,05,39,12.60
2002,08,27,05,40,12.60
2002,08,27,05,41,12.60
2002,08,27,05,42,12.60
2002,08,27,05,43,12.60
2002,08,27,05,44,12.60
2002,08,27,05,45,12.60
2002,08,27,05,46,12.60
2002,08,27,05,47,12.50
2002,08,27,05,48,12.60
2002,08,27,05,49,12.60
2002,08,27,05,50,12.60
2002,08,27,05,51,12.60
2002,08,27,05,52,12.60
2002,08,27,05,53,12.60
2002,08,27,05,54,12.60
2002,08,27,05,55,12.60
2002,08,27,05,56,12.60
2002,08,27,05,57,12.60
2002,08,27,05,58,12.70
2002,08,27,05,59,12.70
2002,08,27,06,00,12.70
2002,08,27,06,01,12.70
2002,08,27,06,02,12.70
2002,08,27,06,03,12.70
2002,08,27,06,04,12.70
2002,08,27,06,05,12.80
2002,08,27,06,06,12.80
2002,08,27,06,07,12.80
2002,08,27,06,08,12.70
2002,08,27,06,09,12.70
2002,08,27,06,10,12.70
2002,08,27,06,11,12.70
2002,08,27,06,12,12.70
2002,08,27,06,13,12.70
2002,08,27,06,14,12.70
2002,08,27,06,15,12.70
2002,08,27,06,16,12.80
2002,08,27,06,17,12.80
2002,08,27,06,18,12.80
2002,08,27,06,19,12.70
2002,08,27,06,20,12.70
2002,08,27,06,21,12.70
2002,08,27,06,22,12.70
2002,08,27,06,23,12.60
2002,08,27,06,24,12.60
2002,08,27,06,25,12.60
2002,08,27,06,26,12.50
2002,08,27,06,27,12.50
2002,08,27,06,28,12.50
2002,08,27,06,29,12.50
2002,08,27,06,30,12.50
2002,08,27,06,31,12.50
2002,08,27,06,32,12.50
2002,08,27,06,33,12.50
2002,08,27,06,34,12.50
2002,08,27,06,35,12.50
2002,08,27,06,36,12.50
2002,08,27,06,37,12.50
2002,08,27,06,38,12.50
2002,08,27,06,39,12.50
2002,08,27,06,40,12.50
2002,08,27,06,41,12.50
2002,08,27,06,42,12.50
2002,08,27,06,43,12.50
2002,08,27,06,44,12.60
2002,08,27,06,45,12.60
2002,08,27,06,46,12.60
2002,08,27,06,47,12.70
2002,08,27,06,48,12.80
2002,08,27,06,49,12.80
2002,08,27,06,50,12.90
2002,08,27,06,51,13.00
2002,08,27,06,52,13.00
2002,08,27,06,53,13.10
2002,08,27,06,54,13.10
2002,08,27,06,55,13.10
2002,08,27,06,56,13.20
2002,08,27,06,57,13.30
2002,08,27,06,58,13.30
2002,08,27,06,59,13.40
2002,08,27,07,00,13.50
2002,08,27,07,01,13.60
2002,08,27,07,02,13.70
2002,08,27,07,03,13.70
2002,08,27,07,04,13.80
2002,08,27,07,05,13.80
2002,08,27,07,06,13.80
2002,08,27,07,07,13.90
2002,08,27,07,08,13.90
2002,08,27,07,09,14.00
2002,08,27,07,10,14.10
2002,08,27,07,11,14.20
2002,08,27,07,12,14.30
2002,08,27,07,13,14.30
2002,08,27,07,14,14.40
2002,08,27,07,15,14.50
2002,08,27,07,16,14.50
2002,08,27,07,17,14.50
2002,08,27,07,18,14.60
2002,08,27,07,19,14.60
2002,08,27,07,20,14.70
2002,08,27,07,21,14.70
2002,08,27,07,22,14.80
2002,08,27,07,23,14.90
2002,08,27,07,24,15.00
2002,08,27,07,25,15.10
2002,08,27,07,26,15.20
2002,08,27,07,27,15.20
2002,08,27,07,28,15.30
2002,08,27,07,29,15.30
2002,08,27,07,30,15.30
2002,08,27,07,31,15.30
2002,08,27,07,32,15.30
2002,08,27,07,33,15.30
2002,08,27,07,34,15.30
2002,08,27,07,35,15.30
2002,08,27,07,36,15.30
2002,08,27,07,37,15.30
2002,08,27,07,38,15.30
2002,08,27,07,39,15.40
2002,08,27,07,40,15.40
2002,08,27,07,41,15.50
2002,08,27,07,42,15.50
2002,08,27,07,43,15.50
2002,08,27,07,44,15.60
2002,08,27,07,45,15.60
2002,08,27,07,46,15.70
2002,08,27,07,47,15.70
2002,08,27,07,48,15.80
2002,08,27,07,49,15.80
2002,08,27,07,50,15.90
2002,08,27,07,51,15.90
2002,08,27,07,52,16.00
2002,08,27,07,53,16.10
2002,08,27,07,54,16.10
2002,08,27,07,55,16.10
2002,08,27,07,56,16.10
2002,08,27,07,57,16.10
2002,08,27,07,58,16.20
2002,08,27,07,59,16.20
2002,08,27,08,00,16.30
2002,08,27,08,01,16.30
2002,08,27,08,02,16.40
2002,08,27,08,03,16.40
2002,08,27,08,04,16.40
2002,08,27,08,05,16.50
2002,08,27,08,06,16.60
2002,08,27,08,07,16.60
2002,08,27,08,08,16.70
2002,08,27,08,09,16.70
2002,08,27,08,10,16.70
2002,08,27,08,11,16.80
2002,08,27,08,12,16.80
2002,08,27,08,13,16.90
2002,08,27,08,14,17.00
2002,08,27,08,15,17.10
2002,08,27,08,16,17.30
2002,08,27,08,17,17.30
2002,08,27,08,18,17.40
2002,08,27,08,19,17.50
2002,08,27,08,20,17.50
2002,08,27,08,21,17.50
2002,08,27,08,22,17.60
2002,08,27,08,23,17.60
2002,08,27,08,24,17.70
2002,08,27,08,25,17.70
2002,08,27,08,26,17.80
2002,08,27,08,27,17.80
2002,08,27,08,28,17.80
2002,08,27,08,29,17.90
2002,08,27,08,30,17.90
2002,08,27,08,31,17.90
2002,08,27,08,32,17.90
2002,08,27,08,33,17.90
2002,08,27,08,34,17.90
2002,08,27,08,35,18.00
2002,08,27,08,36,18.10
2002,08,27,08,37,18.20
2002,08,27,08,38,18.20
2002,08,27,08,39,18.30
2002,08,27,08,40,18.40
2002,08,27,08,41,18.50
2002,08,27,08,42,18.50
2002,08,27,08,43,18.50
2002,08,27,08,44,18.50
2002,08,27,08,45,18.50
2002,08,27,08,46,18.60
2002,08,27,08,47,18.60
2002,08,27,08,48,18.70
2002,08,27,08,49,18.90
2002,08,27,08,50,19.00
2002,08,27,08,51,19.20
2002,08,27,08,52,19.20
2002,08,27,08,53,19.30
2002,08,27,08,54,19.20
2002,08,27,08,55,19.20
2002,08,27,08,56,19.10
2002,08,27,08,57,19.20
2002,08,27,08,58,19.10
2002,08,27,08,59,19.20
2002,08,27,09,00,19.30
2002,08,27,09,01,19.40
2002,08,27,09,02,19.40
2002,08,27,09,03,19.50
2002,08,27,09,04,19.50
2002,08,27,09,05,19.50
2002,08,27,09,06,19.50
2002,08,27,09,07,19.50
2002,08,27,09,08,19.50
2002,08,27,09,09,19.60
2002,08,27,09,10,19.70
2002,08,27,09,11,19.80
2002,08,27,09,12,19.90
2002,08,27,09,13,19.90
2002,08,27,09,14,20.00
2002,08,27,09,15,20.10
2002,08,27,09,16,20.20
2002,08,27,09,17,20.20
2002,08,27,09,18,20.20
2002,08,27,09,19,20.20
2002,08,27,09,20,20.20
2002,08,27,09,21,20.20
2002,08,27,09,22,20.20
2002,08,27,09,23,20.20
2002,08,27,09,24,20.20
2002,08,27,09,25,20.20
2002,08,27,09,26,20.20
2002,08,27,09,27,20.20
2002,08,27,09,28,20.20
2002,08,27,09,29,20.20
2002,08,27,09,30,20.20
2002,08,27,09,31,20.10
2002,08,27,09,32,20.00
2002,08,27,09,33,20.00
2002,08,27,09,34,19.90
2002,08,27,09,35,19.90
2002,08,27,09,36,19.90
2002,08,27,09,37,19.90
2002,08,27,09,38,19.90
2002,08,27,09,39,19.90
2002,08,27,09,40,19.90
2002,08,27,09,41,19.80
2002,08,27,09,42,19.80
2002,08,27,09,43,19.70
2002,08,27,09,44,19.70
2002,08,27,09,45,19.70
2002,08,27,09,46,19.70
2002,08,27,09,47,19.70
2002,08,27,09,48,19.80
2002,08,27,09,49,19.80
2002,08,27,09,50,19.90
2002,08,27,09,51,20.00
2002,08,27,09,52,20.10
2002,08,27,09,53,20.00
2002,08,27,09,54,19.90
2002,08,27,09,55,19.90
2002,08,27,09,56,19.90
2002,08,27,09,57,19.90
2002,08,27,09,58,19.90
2002,08,27,09,59,19.90
2002,08,27,10,00,19.90
2002,08,27,10,01,19.90
2002,08,27,10,02,19.90
2002,08,27,10,03,19.90
2002,08,27,10,04,19.90
2002,08,27,10,05,19.90
2002,08,27,10,06,19.80
2002,08,27,10,07,19.80
2002,08,27,10,08,19.90
2002,08,27,10,09,19.90
2002,08,27,10,10,19.90
2002,08,27,10,11,20.00
2002,08,27,10,12,20.10
2002,08,27,10,13,20.10
2002,08,27,10,14,20.20
2002,08,27,10,15,20.20
2002,08,27,10,16,20.40
2002,08,27,10,17,20.50
2002,08,27,10,18,20.50
2002,08,27,10,19,20.50
2002,08,27,10,20,20.60
2002,08,27,10,21,20.60
2002,08,27,10,22,20.60
2002,08,27,10,23,20.60
2002,08,27,10,24,20.70
2002,08,27,10,25,20.70
2002,08,27,10,26,20.80
2002,08,27,10,27,20.80
2002,08,27,10,28,20.90
2002,08,27,10,29,20.90
2002,08,27,10,30,21.00
2002,08,27,10,31,20.90
2002,08,27,10,32,20.80
2002,08,27,10,33,20.80
2002,08,27,10,34,20.80
2002,08,27,10,35,20.80
2002,08,27,10,36,20.90
2002,08,27,10,37,20.90
2002,08,27,10,38,21.00
2002,08,27,10,39,21.00
2002,08,27,10,40,21.10
2002,08,27,10,41,21.00
2002,08,27,10,42,20.90
2002,08,27,10,43,20.80
2002,08,27,10,44,20.80
2002,08,27,10,45,20.80
2002,08,27,10,46,20.80
2002,08,27,10,47,20.70
2002,08,27,10,48,20.60
2002,08,27,10,49,20.50
2002,08,27,10,50,20.40
2002,08,27,10,51,20.30
2002,08,27,10,52,20.30
2002,08,27,10,53,20.20
2002,08,27,10,54,20.20
2002,08,27,10,55,20.10
2002,08,27,10,56,20.00
2002,08,27,10,57,19.90
2002,08,27,10,58,20.00
2002,08,27,10,59,20.00
2002,08,27,11,00,20.10
2002,08,27,11,01,20.20
2002,08,27,11,02,20.10
2002,08,27,11,03,20.20
2002,08,27,11,04,20.20
2002,08,27,11,05,20.20
2002,08,27,11,06,20.30
2002,08,27,11,07,20.40
2002,08,27,11,08,20.50
2002,08,27,11,09,20.50
2002,08,27,11,10,20.50
2002,08,27,11,11,20.40
2002,08,27,11,12,20.50
2002,08,27,11,13,20.60
2002,08,27,11,14,20.80
2002,08,27,11,15,20.80
2002,08,27,11,16,20.80
2002,08,27,11,17,20.80
2002,08,27,11,18,20.70
2002,08,27,11,19,20.60
2002,08,27,11,20,20.60
2002,08,27,11,21,20.60
2002,08,27,11,22,20.70
2002,08,27,11,23,20.70
2002,08,27,11,24,20.80
2002,08,27,11,25,20.90
2002,08,27,11,26,20.90
2002,08,27,11,27,21.00
2002,08,27,11,28,21.10
2002,08,27,11,29,21.10
2002,08,27,11,30,21.10
2002,08,27,11,31,21.10
2002,08,27,11,32,21.00
2002,08,27,11,33,20.90
2002,08,27,11,34,20.80
2002,08,27,11,35,20.70
2002,08,27,11,36,20.80
2002,08,27,11,37,21.00
2002,08,27,11,38,21.30
2002,08,27,11,39,21.40
2002,08,27,11,40,21.40
2002,08,27,11,41,21.30
2002,08,27,11,42,21.30
2002,08,27,11,43,21.30
2002,08,27,11,44,21.20
2002,08,27,11,45,21.20
2002,08,27,11,46,21.10
2002,08,27,11,47,21.20
2002,08,27,11,48,21.20
2002,08,27,11,49,21.30
2002,08,27,11,50,21.30
2002,08,27,11,51,21.30
2002,08,27,11,52,21.30
2002,08,27,11,53,21.30
2002,08,27,11,54,21.20
2002,08,27,11,55,21.10
2002,08,27,11,56,21.20
2002,08,27,11,57,21.30
2002,08,27,11,58,21.40
2002,08,27,11,59,21.40
2002,08,27,12,00,21.60
2002,08,27,12,01,21.70
2002,08,27,12,02,21.80
2002,08,27,12,03,21.70
2002,08,27,12,04,21.50
2002,08,27,12,05,21.40
2002,08,27,12,06,21.50
2002,08,27,12,07,21.60
2002,08,27,12,08,21.50
2002,08,27,12,09,21.30
2002,08,27,12,10,21.20
2002,08,27,12,11,21.20
2002,08,27,12,12,21.20
2002,08,27,12,13,21.10
2002,08,27,12,14,21.10
2002,08,27,12,15,21.10
2002,08,27,12,16,21.20
2002,08,27,12,17,21.30
2002,08,27,12,18,21.30
2002,08,27,12,19,21.50
2002,08,27,12,20,21.70
2002,08,27,12,21,21.60
2002,08,27,12,22,21.60
2002,08,27,12,23,21.60
2002,08,27,12,24,21.60
2002,08,27,12,25,21.60
2002,08,27,12,26,21.60
2002,08,27,12,27,21.70
2002,08,27,12,28,21.70
2002,08,27,12,29,21.80
2002,08,27,12,30,21.80
2002,08,27,12,31,22.00
2002,08,27,12,32,22.20
2002,08,27,12,33,22.20
2002,08,27,12,34,22.30
2002,08,27,12,35,22.30
2002,08,27,12,36,22.20
2002,08,27,12,37,22.10
2002,08,27,12,38,22.10
2002,08,27,12,39,22.00
2002,08,27,12,40,21.90
2002,08,27,12,41,21.90
2002,08,27,12,42,21.70
2002,08,27,12,43,21.70
2002,08,27,12,44,21.80
2002,08,27,12,45,21.90
2002,08,27,12,46,21.90
2002,08,27,12,47,22.00
2002,08,27,12,48,22.20
2002,08,27,12,49,22.40
2002,08,27,12,50,22.40
2002,08,27,12,51,22.40
2002,08,27,12,52,22.20
2002,08,27,12,53,22.10
2002,08,27,12,54,22.00
2002,08,27,12,55,22.00
2002,08,27,12,56,22.10
2002,08,27,12,57,22.30
2002,08,27,12,58,22.40
2002,08,27,12,59,22.30
2002,08,27,13,00,22.30
2002,08,27,13,01,22.40
2002,08,27,13,02,22.50
2002,08,27,13,03,22.60
2002,08,27,13,04,22.50
2002,08,27,13,05,22.40
2002,08,27,13,06,22.30
2002,08,27,13,07,22.20
2002,08,27,13,08,22.10
2002,08,27,13,09,22.10
2002,08,27,13,10,22.10
2002,08,27,13,11,22.00
2002,08,27,13,12,22.00
2002,08,27,13,13,22.00
2002,08,27,13,14,22.00
2002,08,27,13,15,22.20
2002,08,27,13,16,22.20
2002,08,27,13,17,22.10
2002,08,27,13,18,22.10
2002,08,27,13,19,22.20
2002,08,27,13,20,22.30
2002,08,27,13,21,22.30
2002,08,27,13,22,22.30
2002,08,27,13,23,22.30
2002,08,27,13,24,22.40
2002,08,27,13,25,22.50
2002,08,27,13,26,22.50
2002,08,27,13,27,22.50
2002,08,27,13,28,22.60
2002,08,27,13,29,22.70
2002,08,27,13,30,22.70
2002,08,27,13,31,22.80
2002,08,27,13,32,22.80
2002,08,27,13,33,22.80
2002,08,27,13,34,22.90
2002,08,27,13,35,22.90
2002,08,27,13,36,22.90
2002,08,27,13,37,22.80
2002,08,27,13,38,22.90
2002,08,27,13,39,22.90
2002,08,27,13,40,22.90
2002,08,27,13,41,22.90
2002,08,27,13,42,22.90
2002,08,27,13,43,22.90
2002,08,27,13,44,22.90
2002,08,27,13,45,22.70
2002,08,27,13,46,22.70
2002,08,27,13,47,22.60
2002,08,27,13,48,22.60
2002,08,27,13,49,22.80
2002,08,27,13,50,23.00
2002,08,27,13,51,23.20
2002,08,27,13,52,23.40
2002,08,27,13,53,23.40
2002,08,27,13,54,23.50
2002,08,27,13,55,23.60
2002,08,27,13,56,23.70
2002,08,27,13,57,23.70
2002,08,27,13,58,23.70
2002,08,27,13,59,23.50
2002,08,27,14,00,23.40
2002,08,27,14,01,23.20
2002,08,27,14,02,23.00
2002,08,27,14,03,22.90
2002,08,27,14,04,22.90
2002,08,27,14,05,22.80
2002,08,27,14,06,22.70
2002,08,27,14,07,22.70
2002,08,27,14,08,22.70
2002,08,27,14,09,22.70
2002,08,27,14,10,22.80
2002,08,27,14,11,22.70
2002,08,27,14,12,22.60
2002,08,27,14,13,22.60
2002,08,27,14,14,22.70
2002,08,27,14,15,22.70
2002,08,27,14,16,22.80
2002,08,27,14,17,22.90
2002,08,27,14,18,22.90
2002,08,27,14,19,22.90
2002,08,27,14,20,22.70
2002,08,27,14,21,22.70
2002,08,27,14,22,22.70
2002,08,27,14,23,23.00
2002,08,27,14,24,23.00
2002,08,27,14,25,23.00
2002,08,27,14,26,22.90
2002,08,27,14,27,22.90
2002,08,27,14,28,22.80
2002,08,27,14,29,22.70
2002,08,27,14,30,22.80
2002,08,27,14,31,23.00
2002,08,27,14,32,23.20
2002,08,27,14,33,23.40
2002,08,27,14,34,23.50
2002,08,27,14,35,23.50
2002,08,27,14,36,23.60
2002,08,27,14,37,23.60
2002,08,27,14,38,23.50
2002,08,27,14,39,23.40
2002,08,27,14,40,23.50
2002,08,27,14,41,23.60
2002,08,27,14,42,23.70
2002,08,27,14,43,23.70
2002,08,27,14,44,23.70
2002,08,27,14,45,23.70
2002,08,27,14,46,23.70
2002,08,27,14,47,23.80
2002,08,27,14,48,24.00
2002,08,27,14,49,24.10
2002,08,27,14,50,24.00
2002,08,27,14,51,23.80
2002,08,27,14,52,23.80
2002,08,27,14,53,23.70
2002,08,27,14,54,23.70
2002,08,27,14,55,23.70
2002,08,27,14,56,23.70
2002,08,27,14,57,23.80
2002,08,27,14,58,23.90
2002,08,27,14,59,23.90
2002,08,27,15,00,24.10
2002,08,27,15,01,24.10
2002,08,27,15,02,24.10
2002,08,27,15,03,24.20
2002,08,27,15,04,24.30
2002,08,27,15,05,24.40
2002,08,27,15,06,24.50
2002,08,27,15,07,24.50
2002,08,27,15,08,24.40
2002,08,27,15,09,24.30
2002,08,27,15,10,24.50
2002,08,27,15,11,24.60
2002,08,27,15,12,24.70
2002,08,27,15,13,24.90
2002,08,27,15,14,24.90
2002,08,27,15,15,24.80
2002,08,27,15,16,24.70
2002,08,27,15,17,24.50
2002,08,27,15,18,24.30
2002,08,27,15,19,24.30
2002,08,27,15,20,24.20
2002,08,27,15,21,24.20
2002,08,27,15,22,24.20
2002,08,27,15,23,24.20
2002,08,27,15,24,24.10
2002,08,27,15,25,24.10
2002,08,27,15,26,24.10
2002,08,27,15,27,24.10
2002,08,27,15,28,24.10
2002,08,27,15,29,24.10
2002,08,27,15,30,24.10
2002,08,27,15,31,24.10
2002,08,27,15,32,24.10
2002,08,27,15,33,24.10
2002,08,27,15,34,24.00
2002,08,27,15,35,23.90
2002,08,27,15,36,23.80
2002,08,27,15,37,23.90
2002,08,27,15,38,24.10
2002,08,27,15,39,24.10
2002,08,27,15,40,24.20
2002,08,27,15,41,24.30
2002,08,27,15,42,24.40
2002,08,27,15,43,24.50
2002,08,27,15,44,24.50
2002,08,27,15,45,24.60
2002,08,27,15,46,24.60
2002,08,27,15,47,24.70
2002,08,27,15,48,24.70
2002,08,27,15,49,24.80
2002,08,27,15,50,25.00
2002,08,27,15,51,25.00
2002,08,27,15,52,25.10
2002,08,27,15,53,25.10
2002,08,27,15,54,25.10
2002,08,27,15,55,25.00
2002,08,27,15,56,25.00
2002,08,27,15,57,25.00
2002,08,27,15,58,24.90
2002,08,27,15,59,24.90
2002,08,27,16,00,25.10
2002,08,27,16,01,25.10
2002,08,27,16,02,25.40
2002,08,27,16,03,25.60
2002,08,27,16,04,25.90
2002,08,27,16,05,26.00
2002,08,27,16,06,26.00
2002,08,27,16,07,26.10
2002,08,27,16,08,26.20
2002,08,27,16,09,26.30
2002,08,27,16,10,26.60
2002,08,27,16,11,26.70
2002,08,27,16,12,26.80
2002,08,27,16,13,27.00
2002,08,27,16,14,27.20
2002,08,27,16,15,27.30
2002,08,27,16,16,27.40
2002,08,27,16,17,27.40
2002,08,27,16,18,27.60
2002,08,27,16,19,27.80
2002,08,27,16,20,28.00
2002,08,27,16,21,28.00
2002,08,27,16,22,28.00
2002,08,27,16,23,28.10
2002,08,27,16,24,28.00
2002,08,27,16,25,27.90
2002,08,27,16,26,27.70
2002,08,27,16,27,27.70
2002,08,27,16,28,27.80
2002,08,27,16,29,27.90
2002,08,27,16,30,28.00
2002,08,27,16,31,28.00
2002,08,27,16,32,28.00
2002,08,27,16,33,28.00
2002,08,27,16,34,28.00
2002,08,27,16,35,28.10
2002,08,27,16,36,28.20
2002,08,27,16,37,28.20
2002,08,27,16,38,28.10
2002,08,27,16,39,28.00
2002,08,27,16,40,28.00
2002,08,27,16,41,28.00
2002,08,27,16,42,27.90
2002,08,27,16,43,27.90
2002,08,27,16,44,27.80
2002,08,27,16,45,27.90
2002,08,27,16,46,27.90
2002,08,27,16,47,27.80
2002,08,27,16,48,27.60
2002,08,27,16,49,27.60
2002,08,27,16,50,27.60
2002,08,27,16,51,27.60
2002,08,27,16,52,27.50
2002,08,27,16,53,27.30
2002,08,27,16,54,27.10
2002,08,27,16,55,26.80
2002,08,27,16,56,26.60
2002,08,27,16,57,26.50
2002,08,27,16,58,26.40
2002,08,27,16,59,26.30
2002,08,27,17,00,26.20
2002,08,27,17,01,26.30
2002,08,27,17,02,26.30
2002,08,27,17,03,26.30
2002,08,27,17,04,26.40
2002,08,27,17,05,26.60
2002,08,27,17,06,26.80
2002,08,27,17,07,26.90
2002,08,27,17,08,27.10
2002,08,27,17,09,27.30
2002,08,27,17,10,27.30
2002,08,27,17,11,27.50
2002,08,27,17,12,27.50
2002,08,27,17,13,27.50
2002,08,27,17,14,27.50
2002,08,27,17,15,27.50
2002,08,27,17,16,27.30
2002,08,27,17,17,27.20
2002,08,27,17,18,27.30
2002,08,27,17,19,27.30